Location: Leeds
(37.2390°N, 113.3580°W)
Time: 17:19:18
(UTC-07:00)

Daily predictions for brighter satellites

Satellite Brightness Start Highest point End
(mag) Time Altitude Azimuth Time Altitude Azimuth Time Altitude Azimuth
Cosmos 1125 Rocket 3.6 17:32:09 10° SSW 17:37:26 90° ESE 17:42:47 10° NNE
Thor Agena Rocket 3.8 17:33:26 10° NNE 17:38:31 54° E 17:43:38 10° S
USA 234 4.0 17:32:26 10° NE 17:38:41 50° NW 17:44:55 10° WSW
Cosmos 1812 4.3 17:40:32 10° SE 17:43:02 17° E 17:45:32 10° NE
Cosmos 1269 Rocket 4.0 17:38:19 10° NNW 17:43:37 67° ENE 17:48:53 10° SSE
NOSS 3-1 (A) 4.1 17:37:26 10° NNW 17:45:12 83° ENE 17:53:36 10° SE
YAOGAN 1 2.8 17:44:24 10° SSE 17:48:32 46° ENE 17:52:40 10° N
Cosmos 1633 2.7 17:45:22 10° N 17:48:57 78° W 17:52:30 10° S
OTV 4 0.4 17:48:44 10° W 17:51:46 89° SE 17:54:45 10° E
SL-8 Rocket 4.2 17:49:32 10° N 17:55:30 49° E 18:01:25 10° SSE
Cosmos 1975 4.5 17:53:54 10° NE 17:56:09 14° ENE 17:58:23 10° ESE
ATLAS 2AS CENTAUR R/B 3.5 17:49:44 10° NNW 17:57:08 37° NE 18:04:04 10° ESE
Cosmos 1378 Rocket 4.4 17:56:18 10° SSW 18:00:30 52° W 18:04:43 10° N
Cosmos 1844 Rocket 2.7 17:56:26 10° S 18:01:57 67° ESE 18:07:32 10° NNE
Cosmos 2181 Rocket 4.1 17:56:33 10° S 18:02:52 88° W 18:09:19 10° N
MOS 1 4.3 17:58:12 10° SSE 18:03:51 84° ENE 18:09:32 10° NNW
SL-27 R/B 3.6 18:00:47 10° N 18:03:52 25° ENE 18:06:55 10° SE
Cosmos 2366 rocket 4.3 17:59:00 10° N 18:05:02 43° ENE 18:10:58 10° SSE
Cosmos 2218 Rocket 4.2 17:59:26 10° N 18:05:32 50° E 18:11:32 10° SSE
BREEZE-M DEB (TANK) 3.7 18:05:22 10° WNW 18:07:04 17° NNW 18:08:43 10° NNE
ISS -3.0 18:05:33 10° WSW 18:08:49 64° NW 18:11:30 14° NE
Cosmos 1844 3.8 18:03:47 10° S 18:09:12 56° ESE 18:14:38 10° NNE
SKYMED 2 4.1 18:06:41 10° NNE 18:10:43 37° E 18:14:43 10° SSE
GEOS 3 Rocket 4.1 18:07:05 10° ESE 18:11:45 37° NE 18:16:26 10° NNW
SL-8 R/B 4.4 18:09:22 10° SSW 18:13:48 40° SE 18:17:03 17° ENE
Cosmos 1455 Rocket 3.5 18:09:42 10° N 18:13:49 38° ENE 18:17:55 10° SSE
Meteor 2-19 Rocket 4.4 18:10:57 10° N 18:16:59 66° E 18:22:59 10° SSE
CORIOLIS 4.3 18:16:08 10° SSE 18:21:34 83° WSW 18:27:00 10° NNW
CZ-4 R/B 4.4 18:19:53 10° SSE 18:24:01 89° WSW 18:28:11 10° NNW
CZ-3B DEB 2.0 18:23:43 10° SW 18:27:03 79° NW 18:34:11 14° NE
Cosmos 158 Rocket 4.2 18:21:56 10° NNW 18:27:19 80° WSW 18:32:33 10° SSE
Cosmos 2278 Rocket 2.4 18:22:09 10° S 18:27:31 47° ESE 18:31:58 15° NE
COSMOS 2406 3.4 18:22:47 10° NNW 18:28:32 78° WSW 18:34:14 10° SSE
MONITOR-E 4.1 18:26:45 10° SSE 18:29:56 79° ENE 18:33:08 10° N
Cosmos 1484 Rocket 2.7 18:26:15 10° SSE 18:29:57 56° ENE 18:33:38 10° N
CZ-3A R/B 4.2 18:25:20 10° W 18:30:15 43° NNW 18:49:44 13° NE
CZ-2C R/B 3.4 18:29:21 10° S 18:34:05 51° W 18:39:01 10° NNW
SL-08 R/B 4.5 18:30:36 10° N 18:37:01 83° E 18:43:18 10° S
Tiangong 1 3.3 18:36:53 10° S 18:38:20 14° SE 18:38:20 14° SE
Cosmos 1238 Rocket 2.6 18:38:21 10° SSW 18:41:21 59° W 18:43:57 12° N
Okean 1 3.2 18:46:24 10° S 18:50:26 87° E 18:53:41 16° N
IDEFIX/ARIANE 42P 4.1 18:46:06 10° SSW 18:50:54 37° W 18:55:43 10° NNW
Cosmos 2082 Rocket 3.6 18:50:10 10° N 18:52:44 20° NNE 18:52:44 20° NNE
Nadezhda 3 Rocket 3.9 18:52:21 10° S 18:58:25 62° E 19:04:33 10° NNE
COSMO-SKYMED 1 3.1 18:54:30 10° N 18:58:47 59° WNW 19:03:03 10° SSW
Hubble Space Telescope 3.4 18:57:19 10° SW 18:59:25 14° SSW 19:01:29 10° SSE
Cosmos 1833 Rocket 4.4 18:58:15 10° N 18:59:58 17° NNE 18:59:58 17° NNE
Cosmos 1500 3.0 18:59:26 10° N 19:03:20 71° E 19:07:04 10° SSE
BREEZE-M R/B 4.3 18:52:42 10° WSW 19:03:27 72° NW 19:05:52 35° NE
Meteor 1-28 Rocket 3.2 19:04:52 44° N 19:06:01 83° WNW 19:09:48 10° SSW
Meteor 2-21 4.3 19:02:45 10° N 19:08:58 76° E 19:15:06 10° SSE
Cosmos 1346 Rocket 2.8 19:09:49 10° SSW 19:13:45 78° W 19:14:10 68° NNW
METEOR-M 4.0 19:13:00 10° SSE 19:18:18 74° ENE 19:23:39 10° N
NOAA 12 4.0 19:15:38 10° SSE 19:20:56 87° WSW 19:26:15 10° NNW
OTV 4 3.1 19:25:21 10° W 19:26:41 21° WSW 19:26:41 21° WSW
Cosmos 1975 4.4 19:29:04 10° NNW 19:32:48 35° W 19:36:29 10° SSW
Meteor 2-14 Rocket 4.3 19:27:39 10° N 19:33:51 88° E 19:39:59 10° S
BREEZE M DEB (TANK) 4.3 19:31:01 10° NW 19:34:58 41° NNE 19:34:58 41° NNE
NOSS 3-3 (A) 4.5 19:31:13 10° SW 19:37:16 56° NW 19:39:53 34° N
NOSS 3-3 (C) 4.5 19:31:18 10° SW 19:37:21 56° NW 19:39:57 35° N
Okean 1-7 Rocket 4.3 19:35:21 10° SSW 19:38:57 52° SW 19:38:57 52° SW
ATLAS 2AS CENTAUR R/B 3.6 19:40:43 10° NW 19:48:25 53° WSW 19:55:32 10° S
Cosmos 2297 3.9 19:48:07 10° SSW 19:53:32 66° W 19:53:32 66° W
Timation 2 Rocket 4.2 19:52:13 10° NNW 19:58:19 73° NNW 19:58:19 73° NNW
BREEZE M DEB (TANK) 4.4 19:56:56 10° WSW 20:01:08 27° WNW 20:01:08 27° WNW
Cosmos 2278 Rocket 4.2 20:07:25 10° WSW 20:11:51 23° WNW 20:13:51 19° NNW
ATLAS 3B CENTAUR R/B 4.4 20:53:44 10° WSW 20:59:39 26° SW 20:59:39 26° SW
